SVA120 EGLL-OEJN

Flight info

Callsign SVA120
Flight time N/A
Altitude 35000
Route DET L6 DVR UL9 KONAN UL607 KOK DCT BITBU DCT BABEG/N0471F370 DCT KONIN DCT ERKIR DCT DARZA DCT GLOMY DCT PETAK DCT DIMIS DCT IPTES UL604 SALUN N705 BOPIX N710 TAKRI P751 AST/N0477F390 P751 LXR M999 MUVOL
Aircraft B77W/H-SDE1E2E3FGHIJ2J3J4J5M1RWXY/LB1D1

Departure

Time N/A
Airport London Heathrow Airport (EGLL)

Arrival

Time 2026-05-05 19:21
Airport King Abdulaziz International Airport (OEJN)
Time Latitude Longitude Altitude Speed Heading
2026-05-05 18:48 22.68577 37.65739 21432 ft 456 kts 129°
2026-05-05 18:49 22.66747 37.68533 21183 ft 454 kts 129°
2026-05-05 18:49 22.64926 37.71314 20934 ft 452 kts 129°
2026-05-05 18:49 22.63111 37.74083 20688 ft 449 kts 129°
2026-05-05 18:49 22.61306 37.76834 20448 ft 447 kts 129°
2026-05-05 18:50 22.59512 37.79569 20204 ft 445 kts 129°
2026-05-05 18:50 22.57722 37.82296 19956 ft 443 kts 128°
2026-05-05 18:50 22.55940 37.85008 19742 ft 441 kts 129°
2026-05-05 18:50 22.54163 37.87712 19502 ft 440 kts 129°
2026-05-05 18:51 22.52396 37.90398 19264 ft 438 kts 128°
2026-05-05 18:51 22.50634 37.93077 19035 ft 436 kts 128°
2026-05-05 18:51 22.48881 37.95741 18807 ft 434 kts 128°
2026-05-05 18:51 22.47130 37.98400 18575 ft 433 kts 128°
2026-05-05 18:52 22.45389 38.01044 18340 ft 431 kts 128°
2026-05-05 18:52 22.43650 38.03682 18112 ft 430 kts 128°
2026-05-05 18:52 22.41919 38.06305 17858 ft 428 kts 128°
2026-05-05 18:52 22.40194 38.08919 17597 ft 427 kts 128°
2026-05-05 18:53 22.38473 38.11525 17375 ft 424 kts 128°
2026-05-05 18:53 22.36770 38.14107 17208 ft 418 kts 128°
2026-05-05 18:53 22.35106 38.16627 17018 ft 405 kts 129°
2026-05-05 18:53 22.33503 38.19056 16942 ft 389 kts 129°
2026-05-05 18:54 22.31963 38.21388 16894 ft 374 kts 129°
2026-05-05 18:54 22.30974 38.22883 16890 ft 364 kts 129°
2026-05-05 18:54 22.29060 38.25773 16877 ft 344 kts 130°
2026-05-05 18:54 22.27694 38.27830 16880 ft 335 kts 130°
2026-05-05 18:55 22.26335 38.29868 16877 ft 332 kts 129°
2026-05-05 18:55 22.25010 38.31858 16858 ft 321 kts 130°
2026-05-05 18:55 22.23727 38.33786 16741 ft 311 kts 130°
2026-05-05 18:55 22.22485 38.35651 16621 ft 301 kts 130°
2026-05-05 18:56 22.21286 38.37454 16478 ft 291 kts 130°
2026-05-05 18:56 22.20115 38.39179 16363 ft 280 kts 132°
2026-05-05 18:56 22.18951 38.40805 16245 ft 276 kts 132°
2026-05-05 18:56 22.17757 38.42452 16147 ft 275 kts 133°
2026-05-05 18:57 22.16597 38.44052 16053 ft 274 kts 133°
2026-05-05 18:57 22.15425 38.45674 15954 ft 274 kts 133°
2026-05-05 18:57 22.14260 38.47288 15941 ft 270 kts 133°
2026-05-05 18:57 22.13115 38.48877 15891 ft 269 kts 133°
2026-05-05 18:58 22.11955 38.50486 15749 ft 274 kts 133°
2026-05-05 18:58 22.10784 38.52112 15647 ft 275 kts 133°
2026-05-05 18:58 22.09616 38.53735 15508 ft 274 kts 133°
2026-05-05 18:58 22.08450 38.55357 15399 ft 273 kts 133°
2026-05-05 18:59 22.07289 38.56970 15280 ft 272 kts 133°
2026-05-05 18:59 22.06131 38.58579 15161 ft 271 kts 133°
2026-05-05 18:59 22.04974 38.60184 15043 ft 271 kts 133°
2026-05-05 18:59 22.03822 38.61783 14930 ft 270 kts 133°
2026-05-05 19:00 22.02673 38.63379 14807 ft 269 kts 133°
2026-05-05 19:00 22.01533 38.64974 14690 ft 268 kts 133°
2026-05-05 19:00 22.00400 38.66560 14566 ft 267 kts 133°
2026-05-05 19:00 21.99268 38.68144 14446 ft 266 kts 133°
2026-05-05 19:01 21.98142 38.69719 14343 ft 265 kts 133°
2026-05-05 19:01 21.97021 38.71286 14214 ft 264 kts 133°
2026-05-05 19:01 21.95903 38.72849 14104 ft 263 kts 133°
2026-05-05 19:01 21.94789 38.74406 13999 ft 262 kts 133°
2026-05-05 19:02 21.93681 38.75953 13857 ft 261 kts 133°
2026-05-05 19:02 21.92572 38.77501 13759 ft 260 kts 133°
2026-05-05 19:02 21.91468 38.79042 13639 ft 260 kts 133°
2026-05-05 19:02 21.90366 38.80581 13506 ft 259 kts 133°
2026-05-05 19:03 21.89267 38.82113 13394 ft 258 kts 133°
2026-05-05 19:03 21.88169 38.83645 13256 ft 258 kts 133°
2026-05-05 19:03 21.87077 38.85168 13147 ft 257 kts 133°
2026-05-05 19:03 21.85988 38.86687 13080 ft 256 kts 133°
2026-05-05 19:04 21.85264 38.87696 13057 ft 256 kts 133°
2026-05-05 19:04 21.84201 38.89176 13011 ft 256 kts 133°
2026-05-05 19:04 21.83112 38.90695 12920 ft 257 kts 133°
2026-05-05 19:04 21.82017 38.92220 12778 ft 257 kts 133°
2026-05-05 19:05 21.80925 38.93742 12623 ft 256 kts 132°
2026-05-05 19:05 21.79835 38.95258 12372 ft 257 kts 132°
2026-05-05 19:05 21.78741 38.96778 12129 ft 257 kts 132°
2026-05-05 19:05 21.77729 38.98323 11867 ft 258 kts 121°
2026-05-05 19:06 21.77221 39.00201 11602 ft 264 kts 105°
2026-05-05 19:06 21.76867 39.02143 11329 ft 266 kts 105°
2026-05-05 19:06 21.76628 39.03461 11118 ft 266 kts 105°
2026-05-05 19:06 21.76153 39.06042 10710 ft 264 kts 105°
2026-05-05 19:07 21.75794 39.07969 10402 ft 263 kts 104°
2026-05-05 19:07 21.75430 39.09890 10114 ft 263 kts 104°
2026-05-05 19:07 21.75063 39.11815 9818 ft 262 kts 103°
2026-05-05 19:07 21.74698 39.13729 9489 ft 260 kts 103°
2026-05-05 19:08 21.74373 39.15430 9204 ft 258 kts 103°
2026-05-05 19:08 21.74022 39.17256 8895 ft 258 kts 103°
2026-05-05 19:08 21.73668 39.19093 8592 ft 257 kts 103°
2026-05-05 19:08 21.73306 39.20972 8277 ft 256 kts 103°
2026-05-05 19:09 21.72945 39.22841 7963 ft 256 kts 102°
2026-05-05 19:09 21.72408 39.24639 7614 ft 252 kts 123°
2026-05-05 19:09 21.71166 39.25911 7313 ft 247 kts 152°
2026-05-05 19:09 21.69594 39.26610 7041 ft 243 kts 162°
2026-05-05 19:10 21.67999 39.27225 6741 ft 244 kts 161°
2026-05-05 19:10 21.66401 39.27846 6446 ft 244 kts 161°
2026-05-05 19:10 21.64806 39.28471 6125 ft 244 kts 161°
2026-05-05 19:10 21.63212 39.29099 5824 ft 244 kts 161°
2026-05-05 19:11 21.61616 39.29722 5525 ft 245 kts 161°
2026-05-05 19:11 21.60029 39.30341 5134 ft 239 kts 161°
2026-05-05 19:11 21.58485 39.30946 4769 ft 236 kts 161°
2026-05-05 19:11 21.56906 39.31564 4408 ft 246 kts 161°
2026-05-05 19:12 21.55281 39.32200 4053 ft 253 kts 160°
2026-05-05 19:12 21.53612 39.32852 3686 ft 256 kts 160°
2026-05-05 19:12 21.51947 39.33505 3406 ft 251 kts 159°
2026-05-05 19:12 21.50329 39.34140 3157 ft 243 kts 159°
2026-05-05 19:13 21.48785 39.34744 3083 ft 231 kts 159°
2026-05-05 19:13 21.47263 39.35340 3044 ft 237 kts 159°
2026-05-05 19:13 21.45663 39.35701 3031 ft 244 kts 184°
2026-05-05 19:13 21.44563 39.35402 3045 ft 244 kts 207°
2026-05-05 19:14 21.43147 39.33663 3052 ft 231 kts 251°
2026-05-05 19:14 21.42574 39.32036 3055 ft 236 kts 253°
2026-05-05 19:14 21.42207 39.30945 3032 ft 232 kts 256°
2026-05-05 19:14 21.42295 39.28829 3019 ft 210 kts 301°
2026-05-05 19:15 21.43278 39.27773 3035 ft 199 kts 332°
2026-05-05 19:15 21.44504 39.27063 3041 ft 202 kts 334°
2026-05-05 19:15 21.45354 39.26597 3034 ft 203 kts 336°
2026-05-05 19:15 21.47058 39.25806 3021 ft 196 kts 340°
2026-05-05 19:16 21.48290 39.25303 3006 ft 183 kts 340°
2026-05-05 19:16 21.49456 39.24839 3013 ft 176 kts 340°
2026-05-05 19:16 21.50602 39.24386 3018 ft 176 kts 341°
2026-05-05 19:16 21.51759 39.23929 3028 ft 179 kts 340°
2026-05-05 19:17 21.52935 39.23466 2790 ft 175 kts 341°
2026-05-05 19:17 21.54033 39.23034 2589 ft 160 kts 341°
2026-05-05 19:17 21.55036 39.22638 2389 ft 147 kts 341°
2026-05-05 19:17 21.55951 39.22277 2203 ft 134 kts 342°
2026-05-05 19:18 21.56804 39.21941 2070 ft 130 kts 342°
2026-05-05 19:18 21.57652 39.21607 1902 ft 128 kts 342°
2026-05-05 19:18 21.58197 39.21391 1785 ft 125 kts 342°
2026-05-05 19:18 21.59300 39.20957 1578 ft 129 kts 342°
2026-05-05 19:19 21.59863 39.20735 1456 ft 132 kts 342°
2026-05-05 19:19 21.60717 39.20397 1279 ft 128 kts 342°
2026-05-05 19:19 21.61549 39.20068 1054 ft 128 kts 341°
2026-05-05 19:19 21.62386 39.19730 948 ft 130 kts 340°
2026-05-05 19:20 21.63244 39.19388 747 ft 131 kts 341°
2026-05-05 19:20 21.64099 39.19053 658 ft 131 kts 340°
2026-05-05 19:20 21.64966 39.18704 449 ft 135 kts 339°
2026-05-05 19:20 21.65840 39.18363 243 ft 132 kts 340°
2026-05-05 19:21 21.66691 39.18029 107 ft 130 kts 341°
2026-05-05 19:21 21.67489 39.17715 54 ft 102 kts 338°
2026-05-05 19:21 21.67937 39.17543 51 ft 35 kts 338°
2026-05-05 19:21 21.68154 39.17454 49 ft 33 kts 341°
2026-05-05 19:22 21.68304 39.17361 50 ft 18 kts 311°
2026-05-05 19:22 21.68375 39.17264 48 ft 9 kts 310°
2026-05-05 19:22 21.68382 39.17254 48 ft 0 kts 309°
2026-05-05 19:24 21.68394 39.17238 48 ft 4 kts 308°
2026-05-05 19:24 21.68411 39.17214 48 ft 4 kts 307°
2026-05-05 19:24 21.68428 39.17189 48 ft 4 kts 307°
2026-05-05 19:24 21.68445 39.17165 49 ft 4 kts 307°
2026-05-05 19:25 21.68466 39.17134 49 ft 12 kts 303°
2026-05-05 19:25 21.68498 39.17049 49 ft 12 kts 274°
2026-05-05 19:25 21.68479 39.17014 49 ft 3 kts 195°
2026-05-05 19:25 21.68404 39.17026 46 ft 15 kts 162°
2026-05-05 19:26 21.68308 39.17063 49 ft 15 kts 161°
2026-05-05 19:26 21.68209 39.17099 48 ft 16 kts 160°
2026-05-05 19:26 21.68118 39.17135 47 ft 12 kts 160°
2026-05-05 19:26 21.68042 39.17164 51 ft 12 kts 160°
2026-05-05 19:27 21.67967 39.17156 51 ft 12 kts 226°
2026-05-05 19:27 21.67934 39.17074 49 ft 12 kts 248°
2026-05-05 19:27 21.67901 39.16983 51 ft 15 kts 249°
2026-05-05 19:27 21.67863 39.16875 47 ft 11 kts 250°
2026-05-05 19:28 21.67827 39.16805 44 ft 12 kts 217°
2026-05-05 19:28 21.67742 39.16813 44 ft 13 kts 157°
2026-05-05 19:28 21.67664 39.16846 43 ft 11 kts 159°
2026-05-05 19:28 21.67596 39.16876 42 ft 7 kts 158°
2026-05-05 19:29 21.67560 39.16901 43 ft 6 kts 126°
2026-05-05 19:29 21.67566 39.16940 46 ft 6 kts 65°
2026-05-05 19:29 21.67579 39.16973 48 ft 1 kts 67°
2026-05-05 19:29 21.67581 39.16978 48 ft 1 kts 67°
2026-05-05 19:30 21.67581 39.16979 48 ft 0 kts 67°